Flag for Norway Weather past 2 weeks in Stjørdal, Norway

Now
53 °F

Sunny.


Feels Like: 53 °F
Forecast: 48 / 67 °F
Wind: 3 mph from West

Location: Trondheim / Vaernes

Current Time: Sep 15, 2014 at 11:54:22 AM

Latest Report: Sep 15, 2014 at 11:00 AM


Visibility: 11 mi

Pressure: 30.43 "Hg

Humidity: 81%

Dew point: 47 °F

Location of StjørdalLocation

Historic Weather in Stjørdal — Graph

°F

Stjørdal temperature yesterday

Maximum temperature yesterday: 61 °F (at 5:00 PM)
Minimum temperature yesterday: 49 °F (at 11:00 PM)
Average temperature yesterday: 56 °F

Past Weeks' High & Low Weather Summary

 TemperatureHumidityPressure
High76 °F (Sep 7, 4:00 PM)97% (Sep 3, 2:00 AM)30.52 "Hg (Sep 3, 2:00 AM)
Low42 °F (Sep 15, 7:00 AM)43% (Aug 31, 2:00 PM)29.85 "Hg (Sep 8, 4:00 PM)
Average57 °F78%30.16 "Hg
* Reported Aug 31 10:00 AM — Sep 15 10:00 AM, Stjørdal, Weather by CustomWeather, © 2014

Note: Actual official high and low records may vary slightly from our data, if they occured in-between our weather recording intervals... More about our weather records

Advertising

Stjørdal weather history for previous 24 hours

 ConditionsComfort  
Time TempWeatherWind HumidityBarometerVisibility
10:00 AM
Sep 15
51 °FSunny.1 mph87%30.43 "Hg9 mi
9:00 AM47 °FSunny.2 mph92%30.44 "Hg6 mi
8:00 AM44 °FSunny.2 mph94%30.44 "Hg6 mi
7:00 AM42 °FFog.2 mph97%30.44 "Hg3 mi
6:00 AM42 °FClear.3 mph96%30.44 "Hg4 mi
5:00 AM43 °FClear.3 mph96%30.45 "Hg4 mi
4:00 AM44 °FClear.3 mph96%30.45 "Hg4 mi
3:00 AM45 °FFog.2 mph96%30.47 "Hg2 mi
2:00 AM46 °FFog.2 mph94%30.47 "Hg3 mi
1:00 AM47 °FClear.3 mph94%30.48 "Hg4 mi
12:00 AM48 °FClear.3 mph95%30.48 "Hg4 mi
11:00 PM
Sep 14
49 °FFog.3 mph92%30.48 "Hg3 mi
10:00 PM50 °FClear.3 mph92%30.48 "Hg4 mi
9:00 PM52 °FClear.2 mph90%30.48 "Hg4 mi
8:00 PM55 °FClear.2 mph86%30.48 "Hg6 mi
7:00 PM58 °FSunny.3 mph79%30.48 "Hg7 mi
6:00 PM61 °FPassing clouds.2 mph69%30.48 "Hg7 mi
5:00 PM61 °FOvercast.2 mph70%30.49 "Hg8 mi
4:00 PM61 °FPartly sunny.2 mph67%30.50 "Hg7 mi
3:00 PM61 °FScattered clouds.2 mph72%30.51 "Hg6 mi
2:00 PM60 °FOvercast.2 mph73%30.52 "Hg7 mi
1:00 PM60 °FPartly sunny.2 mph73%30.52 "Hg6 mi
12:00 PM61 °FPartly sunny.1 mph72%30.52 "Hg7 mi
11:00 AM59 °FScattered clouds.1 mph79%30.52 "Hg6 mi
Weather by CustomWeather, © 2014

See weather overviewHow to use our weather pages